Location: ???????
(55.5931°N, 39.3286°E)
Time: 10:23:18
(UTC+00:00)

S3M - Pass Details

Date: 21 May 2025
Orbit: 949 x 1002 km, 83.0° (Epoch: 19 June)

Event Time Altitude Azimuth Distance (km) Brightness Sun altitude
Rises 19:22:06 0° 269° (W) 3,627 7.4 -10.1°
Reaches altitude 10° 19:26:59 10° 303° (WNW) 2,693 7.3 -10.4°
Maximum altitude 19:28:40 11° 319° (NW) 2,619 7.6 -10.5°
Drops below altitude 10° 19:30:21 10° 336° (NNW) 2,703 8.0 -10.6°
Sets 19:35:19 0° 10° (N) 3,666 8.0 -10.9°
